Temp
9 9 9 10 10 10 10 11 11 11 11 11 11 12 12 12 12 13 13 13 13 13 13 13 14 14 13 14 14 14 13 14 15 15 17 17 15 14 13 15 13 15 15 14 13
9 9 9 10 10 10 10 10 11 11 11 11 11 11 12 12 13 13 12 13 13 13 13 13 13 13 14 14 14 13 14 14 16 15 16 17 15 15 15 12 10 13 13 13 14
9 9 9 9 10 10 10 10 10 11 11 11 11 11 11 12 12 13 12 13 13 13 13 13 13 13 13 13 14 14 14 15 16 16 16 17 16 14 15 11 11 11 13 12 13
9 9 9 9 9 10 10 10 10 11 11 11 11 11 11 11 12 13 13 13 13 13 13 13 13 13 12 13 13 14 15 15 16 16 17 17 16 15 14 13 14 11 12 14 11
9 9 9 9 9 9 10 10 10 10 11 11 11 11 11 12 12 12 12 13 13 13 13 13 13 12 12 13 14 15 15 16 16 16 16 17 17 15 14 14 15 14 12 14 12
8 8 8 9 9 9 9 10 10 10 10 11 11 11 12 12 12 12 12 13 13 13 13 13 13 12 13 13 14 15 15 16 16 16 16 16 16 16 15 15 14 15 13 12 12
8 8 8 8 8 9 9 9 10 10 10 10 11 11 12 12 11 10 12 12 13 13 13 13 12 12 13 13 14 15 15 16 16 16 16 16 16 16 16 15 15 15 12 12 12
8 8 8 8 8 9 9 9 9 9 10 10 10 11 12 12 11 11 12 12 12 12 12 12 12 12 12 13 14 14 15 15 16 16 16 16 16 16 16 16 16 15 14 14 13
8 8 8 8 9 9 9 9 9 9 9 10 10 11 12 12 12 11 12 11 12 12 12 11 11 12 12 13 13 15 15 15 16 16 16 16 16 16 16 16 16 16 15 14 12
7 8 8 8 9 9 9 9 9 9 9 9 10 10 11 12 12 12 12 10 10 11 10 11 11 11 12 12 13 14 15 16 16 17 17 17 17 17 17 17 16 16 15 14 14
7 7 7 8 8 9 9 9 9 9 10 10 9 11 11 11 10 11 11 10 10 10 10 10 11 11 12 13 14 14 15 16 17 17 17 17 17 17 17 17 17 16 16 16 15
6 7 7 7 8 8 8 8 9 8 10 10 10 11 11 10 10 10 11 10 10 10 10 11 11 13 13 13 14 15 15 16 16 17 17 17 17 17 17 17 17 17 16 15 15
6 6 7 7 7 7 7 8 8 8 9 13 12 11 11 11 10 11 10 10 10 10 11 11 12 13 13 14 14 15 15 15 16 16 16 17 17 17 17 17 16 16 16 16 16
6 6 6 6 7 7 8 8 8 8 8 13 13 13 12 11 10 10 10 10 10 11 11 11 12 12 13 14 15 15 15 15 15 16 16 16 16 17 17 17 16 16 15 15 16
6 6 6 6 6 6 7 7 7 7 6 12 12 11 12 12 12 12 11 10 10 11 11 12 12 13 13 14 14 15 15 15 15 15 16 16 16 16 17 17 16 16 15 14 14
5 6 6 6 6 6 7 7 7 7 6 12 12 12 11 11 11 11 11 11 11 11 12 12 13 13 14 14 14 14 14 14 15 15 14 16 16 16 16 16 16 16 14 14 14
5 5 6 6 5 6 6 7 6 6 11 12 12 12 11 11 11 11 11 11 11 11 11 12 13 13 14 14 14 14 14 14 12 11 11 15 15 16 16 16 16 16 15 14 14
5 5 5 6 5 5 5 5 4 8 10 12 12 12 12 12 12 11 11 11 11 11 11 11 12 13 14 14 14 14 14 13 10 9 13 15 15 15 16 16 15 14 14 14 14
5 5 6 5 5 4 4 4 5 8 10 10 10 11 12 12 12 12 11 11 12 11 11 12 12 13 14 14 14 14 14 14 14 14 13 15 14 13 14 14 14 14 14 14 13
4 4 5 4 4 4 3 4 5 7 9 8 8 9 10 12 12 12 12 12 12 12 12 12 12 13 14 15 14 14 14 14 14 10 10 14 15 14 13 13 14 14 13 13 12
2 3 2 4 4 3 3 3 4 6 8 7 8 8 9 9 10 10 11 13 13 13 12 12 12 13 13 14 14 14 14 14 14 14 10 9 13 15 14 13 13 13 12 13 12
1 2 -0 0 2 1 1 3 4 4 6 6 6 7 7 8 9 9 10 11 12 13 13 12 12 12 13 14 14 15 14 14 14 14 14 14 14 14 14 13 13 13 13 11 12
1 1 1 -1 1 2 2 2 2 3 3 5 5 6 8 8 8 8 9 12 12 12 13 13 13 13 13 13 13 14 14 14 14 14 14 12 13 14 13 14 13 12 11 10 11
0 1 0 -1 1 0 1 1 2 3 3 4 5 5 6 7 8 8 9 11 12 12 13 14 13 13 12 13 13 14 14 14 14 14 14 14 14 14 13 13 13 12 10 10 8
-0 0 -1 -1 -1 -1 -0 0 0 1 3 4 4 5 6 6 7 7 8 9 10 11 12 13 13 13 13 13 13 13 13 14 14 14 14 14 14 14 13 13 12 11 10 10 10
-1 -2 -1 0 -1 -1 -0 -0 -0 0 1 3 3 4 5 6 7 7 7 8 9 10 10 11 13 13 12 13 13 13 13 13 14 14 14 14 14 13 13 13 12 11 11 10 11
-2 -2 -1 0 0 -1 -1 -1 -0 0 1 1 1 2 4 5 5 6 7 7 8 8 8 9 11 12 12 12 12 12 12 13 13 14 14 14 14 13 12 11 11 10 9 9 8
Height
3183 3183 3182 3182 3181 3181 3182 3182 3182 3182 3182 3182 3181 3182 3182 3183 3183 3184 3185 3186 3187 3188 3189 3191 3194 3197 3199 3201 3203 3203 3202 3201 3199 3205 3203 3204 3201 3202 3205 3207 3201 3204 3200 3201 3202
3182 3181 3180 3180 3179 3179 3179 3179 3179 3179 3179 3179 3179 3179 3179 3180 3180 3182 3183 3183 3184 3186 3187 3188 3191 3195 3197 3199 3200 3201 3200 3199 3199 3205 3204 3201 3197 3197 3199 3210 3204 3205 3205 3203 3202
3179 3179 3178 3177 3177 3176 3176 3176 3176 3176 3177 3177 3177 3177 3176 3177 3178 3180 3180 3181 3182 3183 3184 3186 3188 3191 3194 3196 3197 3198 3198 3200 3199 3203 3204 3201 3195 3198 3199 3203 3208 3208 3205 3205 3202
3177 3176 3175 3175 3174 3174 3173 3173 3173 3173 3174 3174 3174 3174 3174 3175 3177 3176 3178 3179 3180 3182 3182 3184 3187 3189 3191 3193 3195 3196 3197 3199 3199 3202 3203 3203 3200 3200 3199 3205 3198 3209 3208 3207 3206
3175 3174 3173 3172 3172 3171 3170 3170 3170 3171 3171 3171 3172 3172 3172 3172 3174 3174 3175 3177 3179 3180 3181 3184 3186 3188 3190 3192 3193 3194 3195 3197 3197 3198 3201 3199 3197 3196 3196 3198 3196 3206 3202 3203 3205
3172 3171 3171 3170 3169 3169 3168 3168 3168 3168 3168 3168 3169 3169 3169 3171 3171 3172 3174 3175 3177 3178 3180 3183 3185 3189 3191 3191 3193 3192 3192 3194 3195 3195 3197 3200 3194 3195 3194 3193 3194 3193 3199 3205 3206
3170 3169 3168 3168 3167 3166 3166 3165 3165 3165 3165 3165 3165 3165 3167 3171 3167 3169 3172 3174 3175 3177 3179 3182 3184 3188 3190 3190 3190 3190 3190 3189 3191 3192 3193 3196 3197 3194 3194 3190 3190 3195 3199 3202 3204
3167 3166 3166 3166 3165 3164 3163 3163 3163 3162 3162 3162 3162 3162 3162 3166 3166 3166 3168 3172 3173 3175 3178 3180 3184 3186 3187 3188 3186 3187 3187 3187 3187 3188 3190 3193 3192 3193 3190 3191 3191 3188 3194 3195 3196
3164 3164 3163 3163 3162 3162 3161 3161 3160 3160 3159 3159 3159 3159 3161 3162 3163 3167 3168 3169 3172 3174 3176 3179 3183 3183 3185 3186 3186 3184 3184 3184 3181 3183 3186 3189 3187 3189 3189 3188 3191 3190 3190 3188 3196
3160 3160 3160 3160 3159 3159 3158 3158 3157 3157 3156 3156 3156 3160 3159 3160 3161 3163 3165 3168 3170 3173 3176 3178 3179 3180 3181 3183 3181 3180 3182 3180 3178 3178 3177 3183 3184 3186 3187 3190 3187 3191 3189 3190 3191
3158 3157 3157 3156 3156 3156 3156 3155 3157 3155 3152 3154 3152 3153 3155 3158 3159 3160 3163 3166 3170 3173 3173 3175 3176 3175 3177 3180 3180 3181 3181 3181 3176 3181 3175 3179 3181 3183 3185 3187 3189 3186 3188 3190 3192
3156 3156 3155 3154 3153 3152 3153 3151 3151 3151 3146 3147 3149 3148 3151 3151 3158 3159 3160 3164 3166 3168 3171 3174 3170 3173 3176 3178 3179 3179 3179 3177 3173 3175 3176 3176 3177 3180 3183 3185 3186 3179 3183 3184 3186
3153 3153 3153 3152 3151 3151 3149 3149 3149 3146 3143 3141 3143 3144 3149 3150 3151 3155 3158 3160 3162 3166 3168 3169 3167 3172 3174 3175 3176 3177 3177 3175 3174 3172 3175 3175 3175 3177 3180 3184 3177 3174 3177 3182 3184
3149 3150 3150 3150 3152 3148 3147 3148 3146 3145 3142 3136 3135 3137 3141 3146 3146 3150 3153 3158 3161 3162 3166 3167 3168 3170 3173 3173 3175 3175 3174 3175 3174 3173 3172 3174 3172 3173 3175 3179 3174 3169 3169 3174 3180
3145 3145 3145 3147 3147 3147 3147 3145 3145 3144 3144 3135 3133 3135 3137 3139 3144 3142 3149 3154 3155 3159 3164 3161 3163 3166 3167 3169 3173 3173 3174 3175 3175 3171 3169 3167 3170 3170 3171 3172 3169 3169 3165 3168 3175
3139 3140 3141 3141 3143 3145 3144 3144 3143 3146 3139 3134 3133 3132 3135 3136 3140 3144 3146 3151 3155 3158 3158 3159 3162 3163 3164 3166 3168 3171 3173 3172 3172 3171 3169 3166 3168 3163 3164 3166 3163 3166 3165 3165 3169
3133 3133 3135 3136 3138 3139 3141 3141 3143 3140 3135 3133 3132 3133 3134 3135 3137 3141 3146 3147 3149 3153 3150 3154 3155 3158 3161 3163 3165 3167 3170 3171 3171 3170 3168 3165 3166 3158 3161 3160 3160 3161 3164 3168 3168
3126 3125 3129 3132 3131 3134 3136 3138 3136 3134 3131 3130 3131 3132 3131 3134 3135 3138 3141 3143 3146 3149 3151 3152 3151 3152 3153 3156 3160 3163 3166 3167 3172 3170 3165 3164 3161 3153 3155 3157 3160 3162 3165 3167 3169
3118 3118 3121 3125 3126 3128 3130 3128 3128 3130 3131 3130 3126 3125 3128 3131 3133 3134 3136 3138 3140 3144 3147 3147 3145 3148 3151 3153 3156 3159 3159 3164 3165 3162 3165 3163 3160 3160 3154 3155 3158 3160 3163 3165 3166
3113 3113 3114 3115 3119 3120 3121 3117 3120 3127 3127 3126 3127 3125 3126 3127 3131 3131 3132 3132 3135 3138 3142 3142 3142 3141 3145 3150 3148 3150 3157 3159 3160 3162 3164 3157 3157 3153 3152 3153 3155 3156 3159 3161 3162
3107 3108 3105 3110 3113 3113 3109 3110 3115 3121 3126 3125 3124 3124 3121 3122 3124 3124 3125 3127 3131 3134 3137 3138 3141 3135 3139 3138 3142 3145 3148 3152 3154 3154 3154 3157 3152 3152 3149 3153 3153 3156 3155 3157 3159
3101 3104 3104 3105 3109 3108 3106 3109 3111 3113 3116 3117 3118 3119 3120 3119 3117 3118 3117 3121 3127 3127 3129 3132 3134 3133 3129 3131 3136 3135 3140 3145 3146 3148 3148 3148 3151 3149 3149 3151 3152 3150 3151 3154 3159
3096 3099 3099 3099 3101 3101 3104 3104 3106 3109 3110 3112 3112 3115 3116 3116 3117 3111 3111 3111 3115 3118 3120 3126 3126 3129 3128 3128 3128 3131 3133 3137 3140 3144 3144 3146 3148 3148 3147 3148 3148 3147 3150 3155 3160
3092 3094 3096 3093 3097 3097 3097 3098 3098 3101 3102 3106 3107 3109 3109 3110 3113 3107 3105 3106 3107 3109 3112 3116 3117 3117 3120 3122 3126 3126 3128 3132 3135 3136 3138 3138 3142 3146 3145 3144 3147 3144 3142 3149 3152
3085 3088 3089 3090 3092 3093 3093 3093 3094 3095 3096 3099 3099 3103 3106 3106 3106 3104 3104 3103 3103 3104 3106 3108 3107 3112 3115 3118 3121 3123 3125 3126 3127 3131 3132 3135 3136 3138 3140 3140 3142 3140 3141 3143 3142
3080 3077 3079 3080 3083 3084 3085 3086 3088 3090 3094 3092 3095 3096 3093 3094 3097 3098 3101 3100 3100 3100 3100 3103 3100 3105 3108 3112 3115 3116 3119 3121 3122 3125 3128 3129 3132 3133 3135 3135 3137 3140 3139 3140 3143
3068 3073 3075 3076 3078 3080 3082 3084 3085 3087 3086 3086 3082 3080 3080 3085 3086 3089 3093 3093 3094 3098 3098 3098 3099 3100 3100 3107 3111 3112 3110 3115 3117 3119 3123 3122 3125 3128 3130 3131 3132 3131 3132 3135 3138
Wind_Speed
9 8 9 10 10 11 11 11 10 9 10 11 12 13 13 14 14 14 10 11 11 10 11 13 19 20 18 16 13 7 17 25 19 15 10 11 14 9 10 13 4 7 9 2 6
10 10 10 10 11 11 12 12 12 11 11 11 12 12 13 14 14 10 11 8 9 10 9 10 14 19 18 15 12 8 16 18 15 18 11 17 7 7 2 9 12 13 8 3 6
11 11 11 11 11 11 11 12 12 12 12 12 12 12 11 12 12 9 11 9 7 8 8 9 13 18 15 12 10 11 25 18 18 18 16 13 12 15 10 12 7 14 11 2 4
12 12 12 11 11 12 11 12 12 13 13 13 13 13 12 11 7 9 8 8 8 9 8 10 15 15 9 14 13 19 17 21 22 18 13 14 10 16 17 8 8 16 14 13 9
13 12 12 12 11 12 11 12 12 12 13 13 13 14 14 13 10 10 5 9 10 9 8 10 14 11 11 9 10 14 15 18 23 22 20 16 18 12 18 11 7 15 35 20 17
13 13 12 11 11 11 11 11 12 12 13 13 14 15 15 11 13 16 12 8 9 9 10 13 11 4 5 12 17 18 24 24 19 25 17 12 13 16 14 11 10 5 23 22 20
13 13 13 12 11 11 11 11 11 12 12 13 15 16 17 6 14 7 7 11 9 11 12 14 12 8 11 18 14 15 23 20 17 16 20 14 17 22 19 16 7 15 27 26 19
15 14 14 13 12 11 11 11 11 11 12 13 14 16 16 13 19 19 10 8 10 13 13 12 4 13 14 16 18 18 15 19 22 16 17 17 22 17 21 23 18 3 13 19 16
15 16 15 14 13 12 11 11 11 12 12 13 14 15 11 16 19 13 16 10 10 12 14 12 8 14 17 15 14 12 18 19 21 18 21 16 20 17 20 22 16 4 13 15 22
13 14 14 15 14 12 12 11 11 12 13 13 16 12 6 7 11 14 11 12 8 6 9 14 18 19 18 17 24 20 20 23 23 21 20 17 16 8 10 19 22 5 13 18 28
10 12 12 12 14 13 12 12 10 13 17 17 11 14 5 4 4 11 15 16 13 16 20 15 17 20 16 16 18 23 27 30 26 7 17 15 14 13 13 8 7 14 17 11 10
11 12 11 10 11 11 11 13 13 16 21 17 16 21 17 14 8 15 14 21 22 23 16 15 25 17 11 15 20 22 23 24 24 9 20 13 13 13 15 13 16 23 19 10 16
14 13 12 11 11 9 9 15 11 17 24 17 18 21 21 19 18 20 22 20 24 24 20 22 18 12 16 17 23 23 18 18 18 19 17 14 14 17 21 14 14 19 17 18 20
18 16 15 13 11 11 12 9 10 14 14 22 16 19 23 23 24 23 17 26 25 26 21 26 19 21 25 20 19 20 14 17 18 22 25 16 14 19 16 15 20 20 19 19 21
22 20 18 14 13 12 12 9 7 6 5 5 5 4 11 27 4 19 23 23 31 26 23 28 24 24 23 21 18 20 15 16 20 19 25 28 20 19 20 23 29 27 21 15 10
23 23 19 20 16 13 12 10 5 3 9 4 11 11 11 15 22 5 23 26 24 26 28 27 18 22 20 19 20 19 15 18 19 19 13 28 27 32 29 27 31 27 19 15 18
22 23 21 19 19 15 12 10 6 6 3 8 14 13 16 22 24 23 20 30 33 27 35 29 31 26 29 29 21 19 19 10 4 9 11 24 24 34 27 24 29 32 25 18 15
23 24 21 17 19 16 14 14 11 6 13 5 10 16 16 17 25 23 25 31 34 32 19 29 26 29 23 22 24 19 21 18 6 5 11 20 15 27 22 20 21 18 18 18 16
25 25 20 17 19 19 19 23 13 16 14 11 13 12 16 16 21 26 29 32 30 36 36 18 35 21 26 25 23 27 27 27 22 33 14 18 7 7 12 14 17 18 16 15 14
19 17 16 19 21 23 27 33 20 25 16 20 16 11 15 18 19 25 29 25 34 31 35 33 35 26 26 27 29 26 24 26 24 5 5 15 13 13 17 18 17 21 17 18 12
16 10 14 11 16 24 33 33 30 29 17 21 19 22 21 24 22 21 17 30 25 30 29 37 32 37 28 27 35 29 26 26 21 23 8 3 8 11 17 22 24 16 17 17 13
12 6 11 13 14 20 31 32 30 26 23 27 25 25 26 24 32 33 29 20 21 27 34 36 30 34 41 23 20 36 26 31 29 15 15 13 4 7 11 18 19 24 26 18 14
13 11 18 17 20 20 19 21 22 21 22 26 30 25 21 27 32 34 34 25 17 15 39 31 39 32 31 35 30 23 30 29 25 27 29 9 6 11 20 14 25 23 26 23 19
14 9 8 19 11 14 16 23 26 22 24 26 29 29 28 30 30 41 39 27 23 16 16 37 38 37 33 34 24 17 29 29 30 25 27 31 29 22 16 18 29 27 34 28 19
15 14 14 8 15 15 15 21 19 20 23 19 24 27 31 34 31 35 39 36 26 15 22 30 39 37 33 39 37 28 18 32 29 29 31 31 28 29 18 23 25 23 24 19 26
17 20 25 28 25 25 22 21 19 19 14 24 25 23 22 37 37 37 32 35 26 26 10 17 33 35 30 31 39 39 29 23 29 27 25 23 25 16 18 18 19 17 22 21 19
28 26 25 27 28 28 27 20 20 20 28 30 31 32 31 25 26 35 35 34 37 35 26 20 22 32 31 29 25 32 36 29 29 27 29 32 30 27 23 19 18 16 8 7 17
Wind_Direction
307 302 297 289 284 276 270 268 269 271 272 272 267 260 253 254 255 254 261 251 255 249 240 228 220 225 236 239 252 235 265 274 287 303 352 332 247 201 206 157 4 220 281 37 21
304 301 296 291 287 281 275 271 269 269 271 271 272 268 258 252 255 257 242 249 243 238 229 225 210 214 232 242 246 261 275 273 296 299 345 326 241 223 215 197 84 126 135 184 330
297 296 294 291 287 285 282 276 271 268 265 266 268 269 265 258 255 246 256 247 237 232 212 209 201 198 229 247 240 265 264 289 299 301 284 316 293 215 283 177 213 186 186 157 23
296 294 292 289 286 284 283 279 274 269 264 262 262 266 264 257 240 233 236 233 228 227 205 202 213 185 225 267 268 269 268 274 282 293 283 272 337 234 244 173 276 191 228 261 165
294 293 291 290 288 286 283 279 274 267 262 259 258 258 260 253 235 218 214 230 219 219 201 202 201 182 233 244 265 262 281 285 275 277 285 298 287 312 201 239 313 308 234 209 169
292 292 292 292 290 289 286 281 275 268 262 257 253 253 254 258 230 243 246 243 223 217 205 203 184 115 283 269 265 277 282 275 278 279 265 283 274 283 278 281 322 317 170 186 179
287 288 289 290 289 289 290 286 280 271 264 259 255 250 248 203 236 239 255 237 227 211 205 196 143 218 238 275 245 270 285 277 271 275 257 282 261 261 274 257 263 337 191 183 179
285 282 282 284 285 286 286 288 286 278 268 261 256 255 249 232 224 243 257 218 225 207 202 164 202 238 252 242 254 274 277 273 264 256 254 260 269 255 264 261 265 354 179 195 206
284 282 282 280 280 282 282 282 281 279 272 264 259 258 262 228 233 247 236 231 218 212 182 163 210 237 248 230 271 252 264 250 271 257 247 242 247 261 261 275 258 269 215 221 195
294 290 286 285 282 280 280 277 276 271 264 261 260 261 270 295 246 235 223 202 223 194 223 215 227 226 227 217 246 249 265 256 268 291 221 213 244 268 268 275 247 218 197 195 200
311 307 303 295 288 282 280 274 269 267 262 252 237 226 158 139 192 247 217 188 191 226 224 216 235 224 222 211 237 257 275 284 292 287 201 215 231 252 281 277 194 211 217 219 214
305 310 317 316 301 289 278 271 272 275 273 258 246 250 194 155 222 227 209 193 191 223 226 212 238 227 220 241 255 261 275 287 286 324 197 214 216 221 252 268 248 229 221 189 238
296 301 307 313 318 304 274 265 274 272 283 270 260 252 211 196 202 225 196 209 205 217 221 220 225 236 214 239 256 262 267 282 288 292 302 223 229 247 249 249 246 215 227 227 244
283 288 293 301 301 308 300 309 281 296 295 295 264 246 216 217 226 219 220 201 216 221 227 233 244 240 245 244 250 271 260 269 290 293 295 292 240 245 271 244 236 229 235 249 255
277 277 283 281 289 290 294 295 284 295 322 0 203 238 220 209 41 226 195 210 217 216 223 233 234 242 249 259 236 267 248 259 294 295 282 277 290 281 262 248 226 225 239 253 267
273 274 271 276 275 286 296 298 259 210 251 202 201 207 188 229 211 89 195 210 224 224 228 238 251 244 245 245 238 247 264 267 279 270 275 257 274 278 271 293 217 214 233 260 282
269 267 266 265 272 266 265 258 220 223 215 273 216 227 217 222 227 215 222 208 215 222 234 234 240 244 241 251 245 227 235 256 293 276 257 259 263 261 268 258 220 220 226 246 265
273 269 265 257 255 260 254 235 213 231 246 318 317 246 225 220 228 226 228 221 217 221 240 239 251 231 238 250 220 224 226 231 210 222 258 292 258 277 240 201 192 207 230 236 264
275 269 262 251 243 241 236 227 230 242 239 317 297 281 245 242 223 223 229 233 229 224 227 242 239 236 236 238 223 230 234 233 246 264 296 284 158 137 175 184 201 215 223 243 224
278 280 265 240 227 232 231 235 236 229 242 261 289 277 290 261 242 228 224 235 234 230 231 238 258 239 250 239 228 225 231 215 231 249 241 270 262 184 193 209 223 236 220 217 219
286 292 278 246 233 229 231 241 252 246 232 266 270 272 273 281 284 288 270 244 231 232 233 240 242 252 253 256 225 210 229 233 232 234 208 228 270 204 207 257 254 245 245 236 226
273 261 219 259 235 244 252 251 257 254 232 245 251 261 276 281 282 282 274 253 250 237 234 228 236 244 256 251 275 217 222 235 243 252 260 264 253 202 218 222 252 255 258 243 244
259 235 236 238 250 255 267 271 265 268 272 256 259 244 249 270 279 276 270 239 249 267 231 225 229 231 254 262 258 255 221 230 238 245 247 241 270 275 234 239 232 231 219 215 235
254 232 230 246 279 281 283 263 252 235 247 253 267 260 255 263 261 271 272 257 242 249 267 230 222 227 227 242 248 256 218 221 238 246 233 246 258 265 230 203 213 212 209 221 222
244 235 202 214 254 266 272 282 286 279 243 236 250 256 263 269 270 260 270 263 247 252 277 225 222 228 235 234 244 247 268 239 235 243 237 244 246 252 243 220 204 218 215 236 279
238 223 217 222 221 227 233 236 258 282 279 249 261 268 250 250 253 264 262 261 256 268 273 254 225 228 237 235 233 247 256 256 232 243 253 234 225 233 223 213 217 227 251 271 284
237 235 233 233 240 240 241 254 272 265 268 258 262 262 245 242 255 253 249 257 258 266 285 273 254 227 234 223 227 244 243 240 252 241 244 246 242 238 215 206 206 207 229 268 217